Terminal Aerodrome Forecast
Issued by NWS

Home | Current Version | Previous Version | Graphics & Text | Print | Product List | Glossary On
Versions: 1 2 3 4 5 6 7 8 9 10 11 12 13 14 15 16 17 18 19 20 21 22 23 24 25 26 27 28 29 30 31 32 33 34 35 36 37 38 39 40 41 42 43 44 45 46 47 48 49 50
000
FTUS43 KLOT 191100
TAFGYY
TAF
KGYY 191134Z 1912/2012 21008KT 5SM BR VCTS SCT025CB OVC035
     FM191300 21011KT 6SM BR SCT015 BKN035
     FM191700 25012G20KT P6SM VCTS BKN035CB
      TEMPO 1917/1920 -TSRA
     FM192300 26013G20KT P6SM BKN040
     FM200200 28007KT P6SM SCT040=

USA.gov is the U.S. government's official web portal to all federal, state and local government web resources and services.